Ionia, MI

12:35 AM EST on December 08, 2019 (GMT -0500)
Ionia

Weather History for KY70 - November, 2019

Change the Weather History Date:

Sunday, November 17, 2019

  Actual Average (WUND) Record (WUND)
Temperature  
Mean Temperature 28 °F -  
Max Temperature 39 °F - - (-1)
Min Temperature 19 °F - - (-1)
Degree Days  
Heating Degree Days 36    
Moisture  
Dew Point 23 °F    
Average Humidity 73    
Maximum Humidity 91    
Minimum Humidity 56    
Precipitation  
Precipitation 0.00 in - - ()
Sea Level Pressure  
Sea Level Pressure 30.03 in    
Wind  
Wind Speed 4 mph ()    
Max Wind Speed 8 mph    
Max Gust Speed -    
Visibility 10.0 miles    
Events      
Averages and records for this station are not official NWS values.
T = Trace of Precipitation, MM = Missing Value Source: Averaged Metar Reports

Daily Weather History Graph

Daily Weather History Graph

Search for Another Location

Airport or City:

Astronomy

Nov. 17, 2019 Rise Set
Actual Time 7:34 AM EST 5:15 PM EST
Civil Twilight 7:04 AM EST 5:45 PM EST
Nautical Twilight 6:29 AM EST 6:20 PM EST
Astronomical Twilight 5:56 AM EST 6:53 PM EST
Moon 9:49 PM EST (11/17) 12:21 PM EST (11/17)
Length of Visible Light 10h 41m
Length of Day
9h 40m
Waning Gibbous, 73% of the Moon is Illuminated
Nov 17
Waning Gibbous
Nov 19
Last Quarter
Nov 26
New
Dec 4
First Quarter
Dec 12
Full

Hourly Weather History & Observations

Time (EST) Temp. Windchill Dew Point Humidity Pressure Visibility Wind Dir Wind Speed Gust Speed Precip Events Conditions
12:15 AM 24.4 °F 20.1 °F 18.5 °F 78% 30.27 in 10.0 mi NNE 3.5 mph - N/A   Clear
12:35 AM 23.7 °F 14.7 °F 18.5 °F 80% 30.25 in 10.0 mi ENE 8.1 mph - N/A   Clear
12:36 AM 23.9 °F 15.8 °F 18.7 °F 80% 30.25 in 10.0 mi ENE 6.9 mph - N/A   Clear
12:55 AM 24.3 °F 18.4 °F 18.5 °F 79% 30.25 in 10.0 mi NE 4.6 mph - N/A   Clear
12:56 AM 24.3 °F 18.4 °F 18.5 °F 79% 30.25 in 10.0 mi NE 4.6 mph - N/A   Clear
1:15 AM 23.7 °F 19.3 °F 18.0 °F 79% 30.24 in 10.0 mi ENE 3.5 mph - N/A   Clear
1:16 AM 23.5 °F 19.1 °F 18.0 °F 79% 30.24 in 10.0 mi ENE 3.5 mph - N/A   Clear
1:35 AM 23.4 °F 17.4 °F 18.1 °F 80% 30.24 in 10.0 mi NE 4.6 mph - N/A   Clear
2:15 AM 23.2 °F 17.2 °F 17.6 °F 79% 30.22 in 10.0 mi ENE 4.6 mph - N/A   Clear
2:35 AM 23.0 °F 18.4 °F 17.4 °F 79% 30.23 in 10.0 mi ENE 3.5 mph - N/A   Clear
2:36 AM 23.0 °F 17.0 °F 17.4 °F 79% 30.23 in 10.0 mi ENE 4.6 mph - N/A   Clear
2:55 AM 22.6 °F 18.0 °F 17.1 °F 79% 30.22 in 10.0 mi NE 3.5 mph - N/A   Clear
3:16 AM 22.6 °F 16.5 °F 16.9 °F 79% 30.21 in 10.0 mi ENE 4.6 mph - N/A   Clear
3:35 AM 22.5 °F 16.3 °F 17.1 °F 80% 30.21 in 10.0 mi ENE 4.6 mph - N/A   Clear
3:36 AM 22.5 °F 15.1 °F 17.1 °F 80% 30.21 in 10.0 mi ENE 5.8 mph - N/A   Clear
3:55 AM 21.9 °F 14.5 °F 16.7 °F 80% 30.20 in 10.0 mi ENE 5.8 mph - N/A   Clear
4:15 AM 21.9 °F 17.2 °F 16.9 °F 81% 30.19 in 10.0 mi NE 3.5 mph - N/A   Clear
4:35 AM 21.6 °F 16.8 °F 17.1 °F 83% 30.18 in 10.0 mi NE 3.5 mph - N/A   Clear
4:55 AM 21.7 °F 17.0 °F 17.2 °F 83% 30.18 in 10.0 mi ENE 3.5 mph - N/A   Clear
4:56 AM 21.7 °F 17.0 °F 17.2 °F 83% 30.18 in 10.0 mi ENE 3.5 mph - N/A   Clear
5:15 AM 21.7 °F 17.0 °F 17.1 °F 82% 30.17 in 10.0 mi ENE 3.5 mph - N/A   Clear
5:35 AM 21.2 °F 14.9 °F 17.2 °F 85% 30.17 in 10.0 mi East 4.6 mph - N/A   Clear
5:36 AM 21.2 °F 14.9 °F 17.2 °F 85% 30.17 in 10.0 mi East 4.6 mph - N/A   Clear
5:55 AM 21.4 °F 15.1 °F 17.6 °F 85% 30.16 in 10.0 mi East 4.6 mph - N/A   Clear
6:15 AM 21.2 °F 13.6 °F 17.6 °F 86% 30.15 in 10.0 mi East 5.8 mph - N/A   Clear
6:16 AM 21.2 °F 13.6 °F 17.6 °F 86% 30.15 in 10.0 mi East 5.8 mph - N/A   Clear
6:35 AM 20.8 °F 14.4 °F 17.4 °F 87% 30.14 in 10.0 mi East 4.6 mph - N/A   Clear
6:55 AM 20.5 °F 14.0 °F 17.4 °F 88% 30.14 in 10.0 mi East 4.6 mph - N/A   Clear
7:15 AM 20.3 °F - 17.6 °F 89% 30.14 in 10.0 mi Calm Calm - N/A   Clear
7:35 AM 20.3 °F - 17.6 °F 89% 30.13 in 10.0 mi Calm Calm - N/A   Clear
7:55 AM 19.6 °F 13.0 °F 17.2 °F 91% 30.12 in 10.0 mi ESE 4.6 mph - N/A   Clear
8:35 AM 21.6 °F - 18.9 °F 89% 30.11 in 10.0 mi Calm Calm - N/A   Clear
8:55 AM 23.5 °F - 19.8 °F 85% 30.10 in 10.0 mi Calm Calm - N/A   Clear
9:15 AM 25.7 °F 19.0 °F 21.0 °F 82% 30.10 in 10.0 mi SE 5.8 mph - N/A   Clear
9:55 AM 28.4 °F 22.2 °F 21.2 °F 74% 30.09 in 10.0 mi South 5.8 mph - N/A   Clear
10:15 AM 28.8 °F 25.0 °F 21.9 °F 76% 30.07 in 10.0 mi SE 3.5 mph - N/A   Clear
10:16 AM 28.8 °F 25.0 °F 22.1 °F 76% 30.07 in 10.0 mi SE 3.5 mph - N/A   Clear
10:35 AM 30.2 °F 26.7 °F 22.1 °F 72% 30.08 in 10.0 mi SE 3.5 mph - N/A   Clear
10:55 AM 31.5 °F 28.1 °F 21.9 °F 68% 30.07 in 10.0 mi SSE 3.5 mph - N/A   Clear
11:15 AM 32.2 °F - 22.3 °F 67% 30.06 in 10.0 mi Calm Calm - N/A   Clear
11:35 AM 32.9 °F 28.5 °F 22.3 °F 65% 30.04 in 10.0 mi SE 4.6 mph - N/A   Clear
11:36 AM 32.9 °F 28.5 °F 22.3 °F 65% 30.04 in 10.0 mi SE 4.6 mph - N/A   Clear
11:55 AM 33.4 °F 29.1 °F 22.5 °F 64% 30.03 in 10.0 mi SE 4.6 mph - N/A   Clear
12:15 PM 34.3 °F 31.4 °F 21.9 °F 60% 30.03 in 10.0 mi South 3.5 mph - N/A   Clear
12:16 PM 34.3 °F 30.2 °F 21.9 °F 60% 30.03 in 10.0 mi SSE 4.6 mph - N/A   Clear
12:35 PM 34.9 °F 32.0 °F 22.1 °F 60% 30.02 in 10.0 mi South 3.5 mph - N/A   Clear
12:55 PM 35.2 °F 31.2 °F 23.2 °F 62% 30.00 in 10.0 mi SE 4.6 mph - N/A   Clear
1:15 PM 36.3 °F 32.5 °F 23.2 °F 59% 29.99 in 10.0 mi South 4.6 mph - N/A   Clear
1:16 PM 36.3 °F 32.5 °F 23.0 °F 59% 29.99 in 10.0 mi South 4.6 mph - N/A   Clear
1:35 PM 36.7 °F - 23.4 °F 59% 29.98 in 10.0 mi Calm Calm - N/A   Clear
1:55 PM 37.4 °F 33.8 °F 22.8 °F 56% 29.98 in 10.0 mi South 4.6 mph - N/A   Clear
2:15 PM 37.4 °F 34.9 °F 23.2 °F 57% 29.97 in 10.0 mi South 3.5 mph - N/A   Scattered Clouds
2:35 PM 37.8 °F 35.3 °F 24.3 °F 58% 29.96 in 10.0 mi SSE 3.5 mph - N/A   Scattered Clouds
2:55 PM 38.5 °F 35.0 °F 24.3 °F 57% 29.95 in 10.0 mi SSE 4.6 mph - N/A   Clear
3:15 PM 38.7 °F 34.3 °F 24.8 °F 58% 29.95 in 10.0 mi South 5.8 mph - N/A   Clear
3:35 PM 38.5 °F 36.1 °F 25.3 °F 59% 29.94 in 10.0 mi SSE 3.5 mph - N/A   Scattered Clouds
3:55 PM 38.3 °F 35.9 °F 26.1 °F 61% 29.94 in 10.0 mi SE 3.5 mph - N/A   Mostly Cloudy
4:15 PM 38.3 °F 35.9 °F 26.1 °F 61% 29.94 in 10.0 mi ESE 3.5 mph - N/A   Overcast
4:35 PM 37.9 °F 35.5 °F 26.1 °F 62% 29.93 in 10.0 mi East 3.5 mph - N/A   Overcast
4:55 PM 37.8 °F - 25.7 °F 62% 29.93 in 10.0 mi Calm Calm - N/A   Overcast
5:15 PM 37.0 °F 34.5 °F 26.8 °F 66% 29.93 in 10.0 mi ESE 3.5 mph - N/A   Overcast
5:16 PM 37.0 °F 34.5 °F 26.6 °F 66% 29.93 in 10.0 mi ESE 3.5 mph - N/A   Overcast
5:35 PM 36.9 °F 34.3 °F 26.6 °F 66% 29.93 in 10.0 mi ESE 3.5 mph - N/A   Overcast
5:36 PM 36.9 °F 34.3 °F 26.6 °F 66% 29.93 in 10.0 mi ESE 3.5 mph - N/A   Overcast
5:55 PM 36.9 °F 33.1 °F 26.2 °F 65% 29.92 in 10.0 mi ESE 4.6 mph - N/A   Overcast
6:15 PM 36.5 °F 31.8 °F 27.1 °F 69% 29.92 in 10.0 mi SE 5.8 mph - N/A   Overcast
6:35 PM 36.9 °F 32.2 °F 26.6 °F 66% 29.92 in 10.0 mi SSE 5.8 mph - N/A   Overcast
6:36 PM 36.7 °F 32.0 °F 26.8 °F 67% 29.92 in 10.0 mi SSE 5.8 mph - N/A   Overcast
6:55 PM 36.3 °F 31.6 °F 27.5 °F 70% 29.91 in 10.0 mi SE 5.8 mph - N/A   Overcast
6:56 PM 36.3 °F 31.6 °F 27.5 °F 70% 29.91 in 10.0 mi SE 5.8 mph - N/A   Overcast
7:15 PM 36.9 °F 33.1 °F 26.8 °F 67% 29.91 in 10.0 mi SSE 4.6 mph - N/A   Overcast
7:16 PM 36.9 °F 33.1 °F 26.6 °F 66% 29.91 in 10.0 mi SSE 4.6 mph - N/A   Overcast
7:35 PM 37.2 °F - 26.6 °F 65% 29.91 in 10.0 mi Calm Calm - N/A   Overcast
7:36 PM 37.0 °F 34.5 °F 26.6 °F 66% 29.91 in 10.0 mi South 3.5 mph - N/A   Overcast
7:55 PM 36.5 °F 32.7 °F 26.8 °F 68% 29.90 in 10.0 mi SSE 4.6 mph - N/A   Overcast
8:15 PM 36.7 °F 31.2 °F 27.1 °F 68% 29.89 in 10.0 mi SSE 6.9 mph - N/A   Overcast
8:16 PM 36.7 °F 32.0 °F 27.3 °F 69% 29.89 in 10.0 mi SSE 5.8 mph - N/A   Overcast
8:35 PM 36.9 °F 33.1 °F 27.3 °F 68% 29.89 in 10.0 mi SSE 4.6 mph - N/A   Overcast
8:36 PM 36.9 °F 33.1 °F 27.1 °F 68% 29.89 in 10.0 mi SSE 4.6 mph - N/A   Overcast
8:55 PM 36.5 °F 32.7 °F 28.0 °F 71% 29.89 in 10.0 mi SSE 4.6 mph - N/A   Overcast
8:56 PM 36.5 °F 32.7 °F 28.0 °F 71% 29.89 in 10.0 mi SSE 4.6 mph - N/A   Overcast
9:15 PM 36.9 °F 34.3 °F 27.5 °F 69% 29.88 in 10.0 mi SSE 3.5 mph - N/A   Overcast
9:16 PM 36.9 °F 34.3 °F 27.7 °F 69% 29.88 in 10.0 mi SSE 3.5 mph - N/A   Overcast
9:35 PM 36.7 °F 32.9 °F 27.9 °F 70% 29.88 in 10.0 mi South 4.6 mph - N/A   Overcast
9:55 PM 36.5 °F 32.7 °F 28.0 °F 71% 29.88 in 10.0 mi South 4.6 mph - N/A   Overcast
9:56 PM 36.5 °F 33.9 °F 28.0 °F 71% 29.88 in 10.0 mi South 3.5 mph - N/A   Overcast
10:15 PM 36.9 °F 33.1 °F 28.0 °F 70% 29.87 in 10.0 mi SSE 4.6 mph - N/A   Overcast
10:35 PM 35.8 °F - 28.8 °F 76% 29.87 in 10.0 mi Calm Calm - N/A   Overcast
10:36 PM 35.8 °F 33.0 °F 28.9 °F 76% 29.87 in 10.0 mi SSE 3.5 mph - N/A   Overcast
10:55 PM 35.6 °F - 28.9 °F 77% 29.87 in 10.0 mi Calm Calm - N/A   Overcast
11:15 PM 35.2 °F 31.2 °F 29.3 °F 79% 29.86 in 10.0 mi SE 4.6 mph - N/A   Overcast
11:16 PM 35.2 °F 31.2 °F 29.3 °F 79% 29.86 in 10.0 mi SE 4.6 mph - N/A   Overcast
11:35 PM 35.6 °F - 29.1 °F 77% 29.85 in 10.0 mi Calm Calm - N/A   Overcast
11:36 PM 35.6 °F - 29.1 °F 77% 29.85 in 10.0 mi Calm Calm - N/A   Overcast
11:55 PM 35.6 °F - 28.9 °F 77% 29.85 in 10.0 mi Calm Calm - N/A   Overcast